TimeEDT,TemperatureF,Dew PointF,Humidity,Sea Level PressureIn,VisibilityMPH,Wind Direction,Wind SpeedMPH,Gust SpeedMPH,PrecipitationIn,Events,Conditions,WindDirDegrees,DateUTC
12:53 AM,37.9,33.1,83,30.14,10.0,SSE,3.5,-,N/A,,Clear,150,2012-10-09 04:53:00
1:53 AM,35.1,32.0,89,30.13,10.0,SSE,3.5,-,N/A,,Clear,150,2012-10-09 05:53:00
2:53 AM,36.0,30.9,82,30.14,10.0,SSE,5.8,-,N/A,,Clear,150,2012-10-09 06:53:00
4:53 AM,37.9,34.0,86,30.12,10.0,South,5.8,-,N/A,,Clear,180,2012-10-09 08:53:00
5:53 AM,37.0,35.1,93,30.13,10.0,South,4.6,-,N/A,,Clear,180,2012-10-09 09:53:00
6:53 AM,37.0,35.1,93,30.13,8.0,South,5.8,-,N/A,,Clear,170,2012-10-09 10:53:00
7:53 AM,37.9,36.0,93,30.12,6.0,SSE,9.2,-,N/A,,Clear,160,2012-10-09 11:53:00
8:53 AM,42.1,37.9,85,30.13,8.0,South,8.1,-,0.00,,Clear,190,2012-10-09 12:53:00
9:53 AM,46.9,39.9,77,30.13,10.0,South,8.1,-,N/A,,Clear,190,2012-10-09 13:53:00
10:53 AM,52.0,41.0,66,30.13,10.0,SSW,9.2,-,N/A,,Clear,200,2012-10-09 14:53:00
11:53 AM,57.0,39.0,51,30.11,10.0,SSW,13.8,23.0,N/A,,Clear,200,2012-10-09 15:53:00
12:53 PM,59.0,39.0,48,30.08,10.0,SSW,16.1,21.9,N/A,,Clear,200,2012-10-09 16:53:00
1:53 PM,60.1,39.9,47,30.04,10.0,SSW,15.0,-,N/A,,Clear,210,2012-10-09 17:53:00
2:53 PM,62.1,39.0,43,30.01,10.0,South,12.7,19.6,N/A,,Clear,190,2012-10-09 18:53:00
3:53 PM,63.0,39.9,43,29.98,10.0,South,15.0,-,N/A,,Clear,180,2012-10-09 19:53:00
4:53 PM,63.0,39.0,41,29.97,10.0,South,13.8,21.9,N/A,,Clear,190,2012-10-09 20:53:00
5:53 PM,62.1,37.9,41,29.95,10.0,South,15.0,-,N/A,,Clear,180,2012-10-09 21:53:00
6:53 PM,59.0,39.0,48,29.96,10.0,SSW,9.2,-,N/A,,Clear,200,2012-10-09 22:53:00
7:53 PM,53.1,39.0,59,29.96,10.0,SSW,5.8,-,N/A,,Clear,200,2012-10-09 23:53:00
8:53 PM,52.0,39.9,63,29.95,10.0,South,6.9,-,N/A,,Clear,180,2012-10-10 00:53:00
9:53 PM,48.9,39.9,71,29.95,10.0,South,5.8,-,N/A,,Clear,170,2012-10-10 01:53:00
10:53 PM,48.9,39.9,71,29.94,10.0,South,8.1,-,N/A,,Clear,190,2012-10-10 02:53:00
11:53 PM,48.9,41.0,74,29.94,10.0,South,9.2,-,N/A,,Clear,190,2012-10-10 03:53:00